Location: Newark
(37.3394°N, 6.0261°W)
Time: 01:05:58
(UTC+00:00)

Envisat - Pass Details

Date: 25 March 2019
Orbit: 764 x 766 km, 98.2° (Epoch: 20 April)

Event Time Altitude Azimuth Distance (km) Brightness Sun altitude
Rises 20:04:13 0° 201° (SSW) 3,218 6.3 -17.3°
Reaches altitude 10° 20:07:02 10° 217° (SW) 2,297 5.7 -17.8°
Maximum altitude 20:10:50 21° 266° (W) 1,657 5.5 -18.5°
Drops below altitude 10° 20:14:40 10° 315° (NW) 2,308 6.4 -19.2°
Sets 20:17:31 0° 331° (NNW) 3,239 7.0 -19.8°
